www.pogodaiklimat.ru

Погода и климат >> Архив погоды >> Норвегия >> Вангснес


ПОГОДА в Вангснесе

  • Прогноз погоды в Вангснесе
  • Монитор погоды в Вангснесе

АРХИВ ПОГОДЫ в Вангснесе

Время (UTC), дата Ветер
(напр.,м/с)
 
Видим.   Явления Облачность Т
(С)
Тd
(С)
f
(%)
Тe
(С)
Тes
(С)
Комфортность P
(гПа)
Po
(гПа)
Тmin
(С)
Tmax
(С)
R
(мм)
R24
(мм)
S
(см)
13 13.08 Ю 7-10
{13}
н/о н/о +12.8 +9.3 79 +10 +10 1006.0 999.5
14 13.08 Ю 8-11
{12}
н/о н/о +12.5 +9.3 81 +9 +9 1006.2 999.7
15 13.08 Ю 8-13
{13}
н/о н/о +12.5 +9.5 82 +9 +9 1006.4 999.9
16 13.08 Ю 8-11
{12}
н/о н/о +12.4 +9.2 81 +9 +9 1006.4 1000.0
17 13.08 Ю 5-10
{12}
н/о н/о +12.3 +9.0 80 +10 +10 1006.8 1000.4
18 13.08 Ю 6-10
{13}
3000 м дождь {ливн. осадки} 10/6 300 м
[Frnb As op]
+11.9 +8.8 81 +9 +9 1007.2 1000.7 +11.9 +12.9 3
19 13.08 Ю 5-8
{12}
н/о н/о +12.0 +8.3 78 +10 +10 1007.5 1001.0
20 13.08 ЮЗ 4-7
{8}
н/о н/о +11.7 +8.2 79 +10 +10 1007.8 1001.3
21 13.08 Ю 5-8
{8}
н/о н/о +12.0 +7.1 72 +10 +10 1007.9 1001.4
22 13.08 ЮЗ 5-8
{9}
н/о н/о +12.1 +7.8 75 +10 +10 1008.0 1001.5
23 13.08 Ю 4-8
{8}
н/о н/о +11.9 +7.6 75 +10 +10 1008.1 1001.6
00 14.08 Ю 3-5
{12}
н/о н/о +11.9 +7.8 76 +10 +10 1008.2 1001.7 0.2
01 14.08 ЮЗ 3-5
{7}
н/о н/о +12.0 +7.5 74 +10 +10 1008.3 1001.8
02 14.08 ЮЗ 4-7
{8}
н/о н/о +12.1 +7.6 74 +10 +10 1008.4 1001.9
03 14.08 ЮЗ 3-5
{7}
н/о н/о +11.8 +7.3 74 +10 +10 1008.2 1001.7
04 14.08 ЮЗ 3-6
{6}
н/о н/о +11.8 +7.3 74 +10 +10 1008.1 1001.6
05 14.08 ЮЗ 3-5
{6}
н/о н/о +11.7 +7.4 75 +10 +10 1008.2 1001.8
06 14.08 ЮЗ 3-5
{8}
55 км 9/5 1500 м
[Cu Sc Ac trans]
+12.0 +7.9 76 +10 +11 1008.4 1001.9 +11.5 +12.2 0.2
07 14.08 ЮЗ 1-3
{5}
н/о н/о +12.9 +8.4 74 +13 +13 1008.4 1002.0
08 14.08 З 1-2
{4}
н/о н/о +13.1 +9.0 76 +13 +13 1008.5 1002.1
09 14.08 СЗ 2-3
{3}
н/о н/о +13.2 +9.7 79 +13 +13 1008.6 1002.2
10 14.08 СЗ 2-3
{3}
н/о н/о +13.7 +9.2 74 +13 +13 1008.7 1002.3
11 14.08 З 2-3
{3}
н/о н/о +13.5 +8.6 72 +13 +13 1008.6 1002.2
12 14.08 СЗ 2-3
{5}
55 км 9/0 1500 м
[Ac As]
+15.5 +8.5 63 +15 +21 1008.4 1002.0
13 14.08 штиль 0-2
{4}
н/о н/о +15.8 +8.1 60 +16 +16 1008.5 1002.1
14 14.08 С 2-3
{5}
н/о н/о +14.9 +9.1 68 +15 +15 1008.6 1002.2
15 14.08 ЮЗ 4-6
{6}
н/о н/о +14.3 +8.9 70 +13 +13 1008.7 1002.3
16 14.08 З 1-3
{5}
н/о н/о +14.8 +9.0 68 +15 +15 1008.7 1002.2
17 14.08 ЮЗ 1-4
{4}
н/о н/о +14.2 +8.8 70 +15 +15 1008.7 1002.3
18 14.08 СЗ 2-4
{6}
55 км 9/5 1500 м
[Cu Sc Ac As]
+14.1 +9.1 72 +14 +14 1008.9 1002.4 +12.0 +17.0
19 14.08 Ю 4-6
{8}
н/о н/о +13.1 +7.8 70 +11 +11 1009.1 1002.7
20 14.08 Ю 2-3
{5}
н/о н/о +12.5 +7.6 72 +12 +12 1009.4 1003.0
21 14.08 ЮЗ 4-6
{6}
н/о н/о +12.2 +7.5 73 +10 +10 1009.5 1003.0
22 14.08 Ю 3-4
{6}
н/о н/о +11.6 +7.5 76 +10 +10 1009.7 1003.2
23 14.08 ЮЗ 2-4
{4}
н/о н/о +11.7 +8.0 78 +11 +11 1009.7 1003.2
00 15.08 ЮЗ 1-2
{8}
н/о н/о +11.9 +9.1 83 +12 +12 1009.6 1003.2
01 15.08 штиль 0
{2}
н/о н/о +11.4 +9.0 85 +11 +11 1009.5 1003.0
02 15.08 штиль 0 н/о н/о +11.1 +9.2 88 +10 +10 1009.2 1002.7
03 15.08 штиль 0 н/о н/о +10.3 +8.2 87 +10 +10 1008.9 1002.3
04 15.08 ЮВ 2-3
{3}
н/о н/о +9.7 +7.8 88 +8 +8 1008.5 1002.0
05 15.08 В 3-5
{5}
н/о н/о +10.8 +8.9 88 +9 +9 1008.4 1001.9
06 15.08 В 2-3
{5}
55 км 4/1 300 м
[St Cs]
+12.9 +9.2 78 +12 +13 1008.1 1001.7 +9.6 +14.1
07 15.08 СВ 1-3
{4}
н/о н/о +13.4 +9.1 75 +14 +14 1007.7 1001.2
08 15.08 СВ 2-6
{6}
н/о н/о +14.2 +9.4 73 +14 +14 1007.2 1000.7
09 15.08 СВ 3-6
{6}
н/о н/о +14.9 +9.9 72 +14 +14 1006.6 1000.2
10 15.08 СВ 1-4
{6}
н/о н/о +16.3 +10.0 66 +17 +17 1006.1 999.8
11 15.08 СВ 1-3
{5}
н/о н/о +17.8 +9.7 59 +19 +19 1005.5 999.2
12 15.08 В 1-4
{6}
55 км 4/0 2000 м
[Ac cuf Cs]
+17.4 +10.1 62 +18 +28 1005.0 998.7
13 15.08 В 2-3
{4}
н/о н/о +16.7 +9.4 62 +17 +17 1004.6 998.2
14 15.08 штиль 0-2
{3}
н/о н/о +18.1 +8.9 55 +18 +18 1004.0 997.7
15 15.08 В 1-3
{3}
н/о н/о +18.2 +9.3 56 +19 +19 1003.7 997.4
16 15.08 ЮВ 2-3
{3}
н/о н/о +18.2 +7.6 50 +19 +19 1003.4 997.0
17 15.08 ЮВ 2-3
{4}
н/о н/о +16.6 +8.3 58 +17 +17 1002.9 996.6
18 15.08 ЮВ 3-5
{5}
55 км 9/0 2000 м
[Ac As]
+16.1 +10.0 67 +16 +16 1002.7 996.4 +12.5 +18.8
19 15.08 ЮВ 4-6
{7}
н/о н/о +15.8 +10.1 69 +15 +15 1002.6 996.3
20 15.08 ЮВ 1-3
{5}
н/о н/о +16.3 +9.3 63 +17 +17 1002.8 996.5
21 15.08 штиль 0-2
{3}
н/о н/о +15.8 +10.4 70 +16 +16 1003.0 996.7
22 15.08 штиль 0-2
{3}
н/о н/о +15.0 +10.8 76 +15 +15 1003.1 996.7
23 15.08 З 1-3
{3}
н/о н/о +15.2 +11.8 80 +16 +16 1003.1 996.7
00 16.08 ЮЗ 2-4
{7}
н/о н/о +14.6 +11.8 83 +14 +14 1004.0 997.6 0.5
01 16.08 ЮЗ 2-3
{7}
н/о н/о +13.5 +11.9 90 +13 +13 1004.2 997.8
02 16.08 ЮЗ 2-3
{4}
н/о н/о +13.7 +12.4 92 +13 +13 1004.7 998.2
03 16.08 Ю 7-10
{10}
н/о н/о +13.0 +11.4 90 +10 +10 1004.9 998.5
04 16.08 Ю 6-9
{10}
н/о н/о +13.1 +10.6 85 +11 +11 1005.5 999.1
05 16.08 Ю 6-10
{10}
н/о н/о +12.9 +10.3 84 +10 +10 1005.8 999.4
06 16.08 Ю 6-9
{11}
30 км 8/5 600 м
[Sc Ac cuf]
+13.3 +9.7 79 +11 +11 1006.1 999.7 +12.9 +16.4 5
07 16.08 Ю 5-8
{10}
н/о н/о +13.6 +8.2 70 +12 +12 1006.6 1000.2
08 16.08 Ю 5-7
{9}
н/о н/о +14.2 +7.5 64 +13 +13 1007.0 1000.5
09 16.08 Ю 4-7
{8}
н/о н/о +14.2 +8.2 67 +13 +13 1007.1 1000.6
10 16.08 Ю 5-8
{9}
н/о н/о +15.5 +8.3 62 +14 +14 1007.3 1000.9
11 16.08 Ю 4-6
{7}
н/о н/о +15.2 +8.2 63 +14 +14 1007.1 1000.8
12 16.08 ЮЗ 4-6
{10}
55 км 9/0 2000 м
[Ac As]
+15.8 +8.5 62 +15 +19 1006.8 1000.4
13 16.08 ЮЗ 3-5
{6}
н/о н/о +15.8 +8.3 61 +15 +15 1006.7 1000.3
14 16.08 ЮЗ 3-4
{5}
н/о н/о +16.3 +8.5 60 +16 +16 1006.1 999.7
15 16.08 ЮЗ 3-4
{4}
н/о н/о +16.0 +9.2 64 +16 +16 1005.6 999.2
16 16.08 ЮЗ 2-3
{4}
н/о н/о +16.0 +9.0 63 +16 +16 1005.3 999.0
17 16.08 ЮЗ 3-4
{4}
н/о н/о +15.4 +9.5 68 +15 +15 1005.1 998.7
18 16.08 Ю 2-3
{6}
30 км осадки на расстоянии 10/0 2000 м
[Ac As]
+14.6 +10.2 75 +14 +14 1005.1 998.7 +13.3 +16.7
19 16.08 штиль 0-1
{3}
н/о н/о +13.8 +10.0 78 +13 +13 1004.6 998.2
20 16.08 Ю 3-5
{5}
н/о н/о +13.9 +10.7 81 +13 +13 1004.4 998.0
21 16.08 Ю 2-3
{4}
н/о н/о +13.5 +10.3 81 +13 +13 1004.4 998.0
22 16.08 Ю 1-2
{3}
н/о н/о +13.3 +10.5 83 +13 +13 1003.9 997.5
23 16.08 В 1-4
{4}
н/о н/о +13.1 +10.3 83 +13 +13 1003.1 996.7
00 17.08 В 1-3
{5}
н/о н/о +13.2 +10.7 85 +13 +13 1002.3 995.9
01 17.08 В 2-4
{4}
н/о н/о +13.5 +10.7 83 +13 +13 1001.5 995.1
02 17.08 СВ 2-6
{6}
н/о н/о +13.9 +10.7 81 +13 +13 1000.5 994.1
03 17.08 В 4-7
{7}
н/о н/о +14.0 +10.6 80 +13 +13 999.7 993.4
04 17.08 В 3-7
{7}
н/о н/о +13.0 +10.9 87 +12 +12 999.0 992.6
05 17.08 В 3-7
{7}
н/о н/о +12.9 +10.8 87 +11 +11 998.5 992.1
06 17.08 В 4-7
{7}
2500 м дождь 10/5 300 м
[As op]
+13.0 +11.1 88 +11 +11 997.6 991.2 +12.8 +14.6 2
07 17.08 В 4-9
{9}
н/о н/о +13.4 +11.6 89 +12 +12 996.8 990.4
08 17.08 В 4-9
{10}
н/о н/о +13.5 +11.9 90 +12 +12 995.8 989.5
09 17.08 В 5-8
{10}
н/о н/о +13.8 +11.9 88 +12 +12 995.1 988.8
10 17.08 В 4-8
{9}
н/о н/о +14.0 +12.4 90 +12 +12 994.4 988.0
11 17.08 В 4-7
{9}
н/о н/о +14.1 +12.7 91 +13 +13 993.8 987.5
12 17.08 В 3-6
{10}
3000 м ливневой дождь 10/6 200 м
[Cb calv As op]
+14.1 +12.3 89 +13 +14 994.1 987.7 2
13 17.08 СВ 2-5
{5}
н/о н/о +14.3 +12.9 91 +14 +14 993.6 987.3
14 17.08 ЮВ 2-3
{4}
н/о н/о +14.2 +12.9 92 +14 +14 994.2 987.8
15 17.08 ЮВ 5-6
{6}
н/о н/о +14.8 +13.7 93 +13 +13 993.9 987.6
16 17.08 ЮВ 2-5
{8}
н/о н/о +15.0 +13.7 92 +15 +15 994.9 988.5
17 17.08 ЮВ 4-6
{6}
н/о н/о +15.2 +13.9 92 +14 +14 994.7 988.3
18 17.08 ЮВ 3-5
{8}
10 км слаб. ливневой дождь 6/0 2000 м
[Ac inh]
+14.9 +13.4 91 +14 +14 994.8 988.5 +12.9 +15.8 6
19 17.08 штиль 0-2
{5}
н/о н/о +14.5 +13.1 91 +14 +14 995.2 988.9
20 17.08 ЮВ 3-5
{5}
н/о н/о +14.2 +13.1 93 +13 +13 995.1 988.7
21 17.08 ЮВ 2-4
{5}
н/о н/о +14.0 +12.9 93 +13 +13 996.2 989.8
22 17.08 Ю 5-10
{11}
н/о н/о +14.2 +9.2 72 +13 +13 997.2 990.8
23 17.08 ЮЗ 1-4
{8}
н/о н/о +13.5 +8.6 72 +14 +14 998.2 991.8
00 18.08 ЮЗ 4-6
{11}
н/о н/о +13.9 +7.9 67 +13 +13 998.8 992.4 4
01 18.08 Ю 2-3
{6}
н/о н/о +12.4 +7.1 70 +12 +12 998.8 992.4
02 18.08 ЮВ 1-3
{3}
н/о н/о +13.1 +7.8 70 +13 +13 999.1 992.7
03 18.08 ЮВ 3-4
{5}
н/о н/о +12.7 +8.8 77 +11 +11 999.2 992.8
04 18.08 ЮВ 2-5
{5}
н/о н/о +12.4 +8.7 78 +12 +12 999.4 993.0
05 18.08 ЮВ 3-4
{5}
н/о н/о +12.5 +9.3 81 +11 +11 999.4 993.0
06 18.08 ЮВ 3-5
{6}
55 км {ливн. осадки} 9/0 2000 м
[Ac As]
+12.4 +10.0 85 +11 +11 999.4 993.0 +12.0 +15.0 4
07 18.08 ЮВ 4-7
{7}
н/о н/о +13.1 +10.5 84 +11 +11 999.4 993.0
08 18.08 В 4-6
{7}
н/о н/о +14.5 +10.1 75 +13 +13 999.3 993.0
09 18.08 ЮВ 4-7
{7}
н/о н/о +14.2 +10.4 78 +13 +13 999.4 993.1
10 18.08 С 1-3
{6}
н/о н/о +15.4 +11.0 75 +16 +16 999.5 993.2
11 18.08 С 1-3
{3}
н/о н/о +15.4 +10.4 72 +16 +16 999.0 992.7
12 18.08 С 1-3
{7}
55 км 8/0 2000 м
[Ac As Ci sp]
+18.0 +11.3 65 +19 +26 998.5 992.3
13 18.08 СЗ 3-5
{6}
н/о н/о +17.5 +11.5 68 +18 +18 997.9 991.6
14 18.08 штиль 0-1
{5}
н/о н/о +16.4 +10.5 68 +16 +16 997.7 991.4
15 18.08 ЮЗ 4-7
{7}
н/о н/о +16.3 +9.0 62 +16 +16 998.3 992.0
16 18.08 З 2-5
{8}
н/о н/о +16.2 +8.9 62 +16 +16 998.3 992.0
17 18.08 штиль 0-2
{6}
н/о н/о +17.7 +9.6 59 +18 +18 997.7 991.4
18 18.08 ЮВ 4-5
{8}
55 км 8/0 2000 м
[Ac As Cs]
+15.4 +10.0 70 +14 +15 997.5 991.2 +12.4 +18.0
19 18.08 ЮВ 3-5
{7}
н/о н/о +15.6 +9.3 66 +15 +15 997.3 991.0
20 18.08 штиль 0
{3}
н/о н/о +14.8 +9.6 71 +15 +15 997.6 991.2
21 18.08 В 3-4
{4}
н/о н/о +13.9 +10.3 79 +13 +13 997.5 991.1
22 18.08 В 3-5
{5}
н/о н/о +13.7 +9.9 78 +13 +13 997.3 990.9
23 18.08 В 3-5
{6}
н/о н/о +13.9 +10.5 80 +13 +13 997.2 990.9
00 19.08 ЮВ 4-6
{7}
н/о н/о +13.8 +10.4 80 +12 +12 997.1 990.8
01 19.08 ЮВ 4-5
{5}
н/о н/о +13.9 +10.3 79 +12 +12 997.0 990.6
02 19.08 В 4-6
{6}
н/о н/о +13.8 +10.6 81 +12 +12 996.8 990.4
03 19.08 ЮВ 4-6
{6}
н/о н/о +13.3 +10.3 82 +12 +12 996.6 990.2
04 19.08 ЮВ 5-7
{7}
н/о н/о +13.4 +10.4 82 +11 +11 996.4 990.0
05 19.08 ЮВ 3-5
{8}
н/о н/о +13.4 +10.6 83 +12 +12 996.7 990.3
06 19.08 Ю 2-3
{8}
20 км слаб. дождь 9/5 1500 м
[Sc Ac As]
+13.3 +10.5 83 +13 +13 996.7 990.3 +13.2 +15.8
07 19.08 СЗ 1-3
{5}
н/о н/о +13.4 +10.9 85 +14 +14 997.0 990.6
08 19.08 штиль 0
{3}
н/о н/о +13.0 +11.2 89 +12 +12 997.6 991.2
09 19.08 ЮВ 3-5
{5}
н/о н/о +12.9 +11.3 90 +11 +11 998.0 991.7
10 19.08 ЮВ 4-8
{8}
н/о н/о +13.6 +10.4 81 +12 +12 998.6 992.2
11 19.08 ЮВ 4-5
{6}
н/о н/о +12.8 +9.6 81 +11 +11 999.2 992.8
12 19.08 ЮВ 3-5
{8}
4000 м слаб. дождь 10/6 200 м
[St As op]
+12.5 +10.1 85 +11 +12 1000.2 993.8 3
13 19.08 ЮВ 4-5
{6}
н/о н/о +12.7 +10.6 87 +11 +11 1000.7 994.3
14 19.08 штиль 0-2
{5}
н/о н/о +13.3 +11.2 87 +13 +13 1001.4 995.0
15 19.08 ЮВ 3-4
{4}
н/о н/о +12.9 +11.3 90 +11 +11 1002.0 995.6
16 19.08 ЮВ 3-4
{4}
н/о н/о +13.0 +11.7 92 +12 +12 1002.6 996.2
17 19.08 ЮВ 3-4
{4}
н/о н/о +12.8 +11.7 93 +11 +11 1003.0 996.5
18 19.08 ЮВ 3-5
{6}
4500 м слаб. переохл. морось (гололёд) {дождь} 10/6 100 м
[Frnb As op]
+12.8 +11.4 91 +11 +11 1003.2 996.7 +12.2 +13.9 10
19 19.08 ЮВ 4-5
{5}
н/о н/о +12.9 +11.5 91 +11 +11 1003.6 997.2
20 19.08 ЮВ 4-5
{5}
н/о н/о +12.9 +11.1 89 +11 +11 1004.2 997.8
21 19.08 ЮВ 4-5
{5}
н/о н/о +12.7 +11.1 90 +11 +11 1004.5 998.1
22 19.08 ЮВ 3-4
{4}
н/о н/о +12.7 +11.1 90 +11 +11 1004.8 998.4
23 19.08 ЮВ 1-3
{3}
н/о н/о +12.3 +10.5 89 +12 +12 1005.3 998.8
00 20.08 ЮВ 2-3
{5}
н/о н/о +12.3 +10.5 89 +11 +11 1005.5 999.0 1
01 20.08 ЮВ 3-4
{4}
н/о н/о +12.7 +10.9 89 +11 +11 1005.7 999.3
02 20.08 ЮВ 3-4
{5}
н/о н/о +12.9 +11.0 88 +11 +11 1006.0 999.6
03 20.08 ЮВ 2-2
{3}
н/о н/о +12.1 +10.5 90 +11 +11 1006.3 999.8
04 20.08 ЮВ 3-4
{4}
н/о н/о +12.2 +10.8 91 +11 +11 1006.7 1000.3
05 20.08 ЮВ 1-2
{3}
н/о н/о +12.2 +10.8 91 +12 +12 1007.0 1000.5
06 20.08 ЮВ 4-6
{6}
20 км осадки на расстоянии {ливн. осадки} 10/6 600 м
[Sc Ac As]
+12.9 +11.1 89 +11 +11 1007.3 1000.9 +12.0 +13.0 3
07 20.08 ЮВ 4-5
{6}
н/о н/о +13.1 +10.8 86 +11 +11 1007.8 1001.4
08 20.08 ЮВ 3-5
{8}
н/о н/о +13.7 +10.5 81 +13 +13 1008.2 1001.8
09 20.08 ЮВ 2-4
{6}
н/о н/о +13.7 +10.7 82 +13 +13 1008.8 1002.3
10 20.08 штиль 0
{5}
н/о н/о +12.8 +11.0 89 +12 +12 1009.4 1002.9
11 20.08 СЗ 2-3
{3}
н/о н/о +13.6 +11.8 89 +13 +13 1009.7 1003.3

 

Местоположение метеостанции Вангснес (Норвегия): широта 61.17 долгота 6.65 высота над уровнем моря 49 м.

В архиве по умолчанию представлена погода в Вангснесе за последнюю неделю. Архивные данные за месяц целиком и за предыдущие месяцы, начиная с января 2011 года, Вы можете получить, выбрав интересующий диапазон дат из раскрывающегося списка и нажав кнопку "Ввод!".


*Определитесь, кто Вы:
робот инопланетянин человек

Внимание! Время в таблицах - всемирное. Для получения местного времени необходимо прибавить поправку, которая равна 1 ч.

Смотрите также архив погоды в соседних городах и на ближайших метеорологических станциях:

Погода в Согндал аэропорту (Норвегия) (26 км)
Погода во Фьерлэнде (Норвегия) (29 км)
Погода в Лардале (Норвегия) (46 км)
Погода в Модалене (Норвегия) (50 км)
Погода во Флурё (Норвегия) (51 км)
Погода во Флурё аэропорту (Норвегия) (53 км)
Погода в Мьолфелле (Норвегия) (55 км)
Погода в Клеваватнете (Норвегия) (58 км)
Погода в Воссевангене (Норвегия) (61 км)
Погода в Булкене (Норвегия) (62 км)

Пояснения к столбцам:

Ветер - указаны скорость ветра в м/с - средняя за 10 мин, порывы в срок и между сроками (в фигурных скобках) и направление, откуда дует ветер: С - северный, СВ - северо-восточный, В - восточный, ЮВ - юго-восточный, Ю - южный, ЮЗ - юго-западный, З - западный, СЗ - северо-западный.
Видимость - горизонтальная дальность видимости в метрах или километрах. При видимости от 1 до 10 км при отсутствии осадков обычно наблюдается дымка, при ухудшении видимости до 1 км и менее - туман. В сухую погоду видимость может ухудшаться дымом, пылью или мглою.
Явления - указаны атмосферные явления, наблюдавшиеся в срок или в последний час перед сроком; фигурными скобками обозначены явления, наблюдавшиеся между сроками (за 1-3 часа до срока); квадратными скобками обозначены град или гололедные отложения с указанием их диаметра в мм.
Облачность - указаны через наклонную черту общая и нижняя облачность в баллах и высота нижней границы облаков в метрах; квадратными скобками обозначены формы облаков: Ci - перистые, Cs - перисто-слоистые, Cc - перисто-кучевые, Ac - высококучевые, As - высокослоистые, Sc - слоисто-кучевые, Ns - слоисто-дождевые, Cu - кучевые, Cb - кучево-дождевые. Подробнее классификацию облаков см. в Атласе облаков (PDF).
T - Температура воздуха - температура, измеренная на высоте 2 м над землей.
Td - Температура точки росы - температура, при понижении до которой содержащийся в воздухе водяной пар достигнет насыщения.
f - Относительная влажность воздуха - влажноcть воздуха, измеренная на высоте 2 м над землей.
Te - Эффективная температура - температура, которую ощущает одетый по сезону человек в тени. Характеристика душности погоды. При расчете учитывается влияние влажности воздуха и скорости ветра на теплоощущения человека.
Tes - Эффективная температура на солнце - температура, которую ощущает человек, с поправкой на солнечный нагрев. Характеристика знойности погоды. Зависит от высоты солнца над горизонтом, облачности и скорости ветра. Ночью, в пасмурную погоду, а также при ветре 12 м/с и более поправка равна нулю.
P - Атмосферное давление - приведенное к уровню моря атмосферное давление.
Po - Атмосферное давление - измеренное на уровне метеостанции атмосферное давление.
Tmin - Минимальная температура - минимум температуры воздуха на высоте 2 м над землей.
Tmax - Максимальная температура - максимум температуры воздуха на высоте 2 м над землей.
R - Количество осадков - Количество выпавших осадков за период времени, мм. При наведении курсора мыши на число - период времени, за который выпало указанное количество осадков.
R24 - Количество осадков - Количество выпавших осадков за 24 часа, мм.
S - Снежный покров - Высота снежного покрова, см. При наведении курсора мыши на число - состояние снежного покрова и степень покрытия местности в баллах.